Time,TemperatureF,DewpointF,PressureIn,WindDirection,WindDirectionDegrees,WindSpeedMPH,WindSpeedGustMPH,Humidity,HourlyPrecipIn,Conditions,Clouds,dailyrainin,SoftwareType,DateUTC
2013-10-23 00:03:00,48.3,36.0,29.22,WSW,247,0.0,0.0,63,0.00,,,0.00,Rainwise IP-100,2013-10-23 07:03:00,
2013-10-23 00:08:00,48.3,36.0,29.22,WSW,247,0.0,0.0,63,0.00,,,0.00,Rainwise IP-100,2013-10-23 07:08:00,
2013-10-23 00:13:00,48.0,36.0,29.22,WSW,247,1.4,2.0,62,0.00,,,0.00,Rainwise IP-100,2013-10-23 07:13:00,
2013-10-23 00:18:00,47.8,36.0,29.22,WSW,247,1.6,2.0,63,0.00,,,0.00,Rainwise IP-100,2013-10-23 07:18:00,
2013-10-23 00:23:00,48.0,37.0,29.22,WSW,247,1.4,2.0,64,0.00,,,0.00,Rainwise IP-100,2013-10-23 07:23:00,
2013-10-23 00:28:00,48.2,36.0,29.22,WSW,247,0.0,2.0,63,0.00,,,0.00,Rainwise IP-100,2013-10-23 07:28:00,
2013-10-23 00:33:00,48.1,36.0,29.22,SSE,157,0.0,1.0,63,0.00,,,0.00,Rainwise IP-100,2013-10-23 07:33:00,
2013-10-23 00:38:00,47.7,35.0,29.22,SSE,157,0.0,0.0,62,0.00,,,0.00,Rainwise IP-100,2013-10-23 07:38:00,
2013-10-23 00:43:00,47.0,35.0,29.22,SSE,157,0.0,0.0,63,0.00,,,0.00,Rainwise IP-100,2013-10-23 07:43:00,
2013-10-23 00:48:00,46.4,35.0,29.22,SSE,157,0.0,0.0,65,0.00,,,0.00,Rainwise IP-100,2013-10-23 07:48:00,
2013-10-23 00:53:00,46.1,36.0,29.22,SSE,157,0.0,0.0,67,0.00,,,0.00,Rainwise IP-100,2013-10-23 07:53:00,
2013-10-23 00:58:00,46.1,36.0,29.22,SSE,157,0.0,0.0,68,0.00,,,0.00,Rainwise IP-100,2013-10-23 07:58:00,
2013-10-23 01:03:00,46.1,36.0,29.22,WSW,247,1.6,1.6,69,0.00,,,0.00,Rainwise IP-100,2013-10-23 08:03:00,
2013-10-23 01:08:00,46.0,36.0,29.22,WSW,247,2.1,3.0,68,0.00,,,0.00,Rainwise IP-100,2013-10-23 08:08:00,
2013-10-23 01:13:00,45.9,36.0,29.22,WSW,247,0.0,3.0,67,0.00,,,0.00,Rainwise IP-100,2013-10-23 08:13:00,
2013-10-23 01:18:00,45.7,36.0,29.22,WSW,247,1.9,3.0,67,0.00,,,0.00,Rainwise IP-100,2013-10-23 08:18:00,
2013-10-23 01:23:00,45.5,36.0,29.22,WSW,247,1.4,3.0,67,0.00,,,0.00,Rainwise IP-100,2013-10-23 08:23:00,
2013-10-23 01:28:00,45.7,36.0,29.22,WSW,247,0.0,1.0,67,0.00,,,0.00,Rainwise IP-100,2013-10-23 08:28:00,
2013-10-23 01:33:00,45.8,36.0,29.22,WSW,247,0.0,0.0,67,0.00,,,0.00,Rainwise IP-100,2013-10-23 08:33:00,
2013-10-23 01:38:00,45.6,36.0,29.22,WSW,247,0.0,0.0,67,0.00,,,0.00,Rainwise IP-100,2013-10-23 08:38:00,
2013-10-23 01:43:00,45.3,35.0,29.22,WSW,247,0.0,0.0,67,0.00,,,0.00,Rainwise IP-100,2013-10-23 08:43:00,
2013-10-23 01:48:00,44.9,35.0,29.21,WSW,247,3.7,3.7,67,0.00,,,0.00,Rainwise IP-100,2013-10-23 08:48:00,
2013-10-23 01:53:00,44.7,36.0,29.22,WSW,247,1.6,3.0,69,0.00,,,0.00,Rainwise IP-100,2013-10-23 08:53:00,
2013-10-23 01:58:00,45.1,36.0,29.21,WSW,247,0.0,2.0,70,0.00,,,0.00,Rainwise IP-100,2013-10-23 08:58:00,
2013-10-23 02:03:00,45.4,36.0,29.22,WSW,247,0.0,0.0,69,0.00,,,0.00,Rainwise IP-100,2013-10-23 09:03:00,
2013-10-23 02:08:00,45.1,35.0,29.22,WSW,247,0.0,0.0,68,0.00,,,0.00,Rainwise IP-100,2013-10-23 09:08:00,
2013-10-23 02:13:00,44.6,36.0,29.22,WSW,247,0.0,0.0,69,0.00,,,0.00,Rainwise IP-100,2013-10-23 09:13:00,
2013-10-23 02:18:00,44.2,36.0,29.22,WSW,247,1.9,2.0,71,0.00,,,0.00,Rainwise IP-100,2013-10-23 09:18:00,
2013-10-23 02:23:00,44.0,36.0,29.22,WSW,247,0.0,3.0,71,0.00,,,0.00,Rainwise IP-100,2013-10-23 09:23:00,
2013-10-23 02:28:00,44.1,36.0,29.22,WSW,247,0.0,1.0,71,0.00,,,0.00,Rainwise IP-100,2013-10-23 09:28:00,
2013-10-23 02:33:00,44.5,36.0,29.22,WSW,247,0.0,1.0,71,0.00,,,0.00,Rainwise IP-100,2013-10-23 09:33:00,
2013-10-23 02:38:00,44.7,36.0,29.21,WSW,247,0.0,0.0,70,0.00,,,0.00,Rainwise IP-100,2013-10-23 09:38:00,
2013-10-23 02:43:00,44.4,35.0,29.21,WSW,247,0.0,0.0,70,0.00,,,0.00,Rainwise IP-100,2013-10-23 09:43:00,
2013-10-23 02:48:00,43.9,36.0,29.22,WSW,247,0.0,0.0,71,0.00,,,0.00,Rainwise IP-100,2013-10-23 09:48:00,
2013-10-23 02:53:00,43.6,36.0,29.21,WSW,247,1.6,0.0,73,0.00,,,0.00,Rainwise IP-100,2013-10-23 09:53:00,
2013-10-23 02:58:00,43.5,36.0,29.21,WSW,247,0.0,2.0,73,0.00,,,0.00,Rainwise IP-100,2013-10-23 09:58:00,
2013-10-23 03:03:00,43.7,36.0,29.21,WSW,247,0.0,1.0,73,0.00,,,0.00,Rainwise IP-100,2013-10-23 10:03:00,
2013-10-23 03:08:00,44.0,36.0,29.21,WSW,247,0.0,0.0,72,0.00,,,0.00,Rainwise IP-100,2013-10-23 10:08:00,
2013-10-23 03:13:00,44.0,36.0,29.21,WSW,247,0.0,0.0,71,0.00,,,0.00,Rainwise IP-100,2013-10-23 10:13:00,
2013-10-23 03:18:00,43.4,35.0,29.21,WSW,247,0.0,0.0,71,0.00,,,0.00,Rainwise IP-100,2013-10-23 10:18:00,
2013-10-23 03:23:00,42.9,35.0,29.21,WSW,247,0.0,0.0,72,0.00,,,0.00,Rainwise IP-100,2013-10-23 10:23:00,
2013-10-23 03:28:00,42.7,35.0,29.21,WSW,247,0.0,0.0,73,0.00,,,0.00,Rainwise IP-100,2013-10-23 10:28:00,
2013-10-23 03:33:00,42.4,35.0,29.21,WSW,247,0.0,0.0,73,0.00,,,0.00,Rainwise IP-100,2013-10-23 10:33:00,
2013-10-23 03:38:00,42.0,35.0,29.21,WSW,247,0.0,2.0,74,0.00,,,0.00,Rainwise IP-100,2013-10-23 10:38:00,
2013-10-23 03:43:00,41.9,36.0,29.21,WSW,247,0.0,2.0,76,0.00,,,0.00,Rainwise IP-100,2013-10-23 10:43:00,
2013-10-23 03:48:00,42.3,36.0,29.21,WSW,247,0.0,1.0,78,0.00,,,0.00,Rainwise IP-100,2013-10-23 10:48:00,
2013-10-23 03:53:00,42.7,36.0,29.21,WSW,247,0.0,0.0,76,0.00,,,0.00,Rainwise IP-100,2013-10-23 10:53:00,
2013-10-23 03:58:00,42.6,36.0,29.21,WSW,247,1.6,0.0,74,0.00,,,0.00,Rainwise IP-100,2013-10-23 10:58:00,
2013-10-23 04:03:00,42.3,35.0,29.21,WSW,247,0.0,2.0,75,0.00,,,0.00,Rainwise IP-100,2013-10-23 11:03:00,
2013-10-23 04:08:00,42.3,36.0,29.21,WSW,247,0.0,0.0,76,0.00,,,0.00,Rainwise IP-100,2013-10-23 11:08:00,
2013-10-23 04:13:00,42.3,35.0,29.21,WSW,247,0.0,0.0,75,0.00,,,0.00,Rainwise IP-100,2013-10-23 11:13:00,
2013-10-23 04:18:00,42.0,35.0,29.21,WSW,247,0.0,0.0,75,0.00,,,0.00,Rainwise IP-100,2013-10-23 11:18:00,
2013-10-23 04:23:00,41.6,35.0,29.21,WSW,247,1.6,1.6,75,0.00,,,0.00,Rainwise IP-100,2013-10-23 11:23:00,
2013-10-23 04:28:00,41.3,35.0,29.21,WSW,247,1.2,2.0,75,0.00,,,0.00,Rainwise IP-100,2013-10-23 11:28:00,
2013-10-23 04:33:00,41.3,35.0,29.21,WSW,247,1.2,1.2,76,0.00,,,0.00,Rainwise IP-100,2013-10-23 11:33:00,
2013-10-23 04:38:00,41.5,36.0,29.21,WSW,247,0.0,2.0,76,0.00,,,0.00,Rainwise IP-100,2013-10-23 11:38:00,
2013-10-23 04:43:00,41.7,36.0,29.21,WSW,247,0.0,0.0,76,0.00,,,0.00,Rainwise IP-100,2013-10-23 11:43:00,
2013-10-23 04:48:00,41.6,36.0,29.21,WSW,247,0.0,1.0,76,0.00,,,0.00,Rainwise IP-100,2013-10-23 11:48:00,
2013-10-23 04:53:00,41.4,35.0,29.21,WSW,247,0.0,1.0,76,0.00,,,0.00,Rainwise IP-100,2013-10-23 11:53:00,
2013-10-23 04:58:00,41.5,36.0,29.21,WSW,247,0.0,0.0,76,0.00,,,0.00,Rainwise IP-100,2013-10-23 11:58:00,
2013-10-23 05:03:00,41.6,36.0,29.21,WSW,247,0.0,0.0,76,0.00,,,0.00,Rainwise IP-100,2013-10-23 12:03:00,
2013-10-23 05:08:00,41.4,35.0,29.21,WSW,247,0.0,0.0,75,0.00,,,0.00,Rainwise IP-100,2013-10-23 12:08:00,
2013-10-23 05:13:00,40.9,35.0,29.21,WSW,247,0.0,0.0,75,0.00,,,0.00,Rainwise IP-100,2013-10-23 12:13:00,
2013-10-23 05:18:00,40.4,33.0,29.21,WSW,247,0.0,0.0,76,0.00,,,0.00,Rainwise IP-100,2013-10-23 12:18:00,
2013-10-23 05:23:00,40.0,33.0,29.21,WSW,247,0.0,0.0,77,0.00,,,0.00,Rainwise IP-100,2013-10-23 12:23:00,
2013-10-23 05:28:00,39.7,33.0,29.21,WSW,247,0.0,0.0,77,0.00,,,0.00,Rainwise IP-100,2013-10-23 12:28:00,
2013-10-23 05:33:00,39.6,35.0,29.21,WSW,247,0.0,0.0,79,0.00,,,0.00,Rainwise IP-100,2013-10-23 12:33:00,
2013-10-23 05:38:00,39.7,35.0,29.21,WSW,247,0.0,0.0,79,0.00,,,0.00,Rainwise IP-100,2013-10-23 12:38:00,
2013-10-23 05:43:00,39.9,35.0,29.22,WSW,247,0.0,0.0,80,0.00,,,0.00,Rainwise IP-100,2013-10-23 12:43:00,
2013-10-23 05:48:00,39.7,35.0,29.22,WSW,247,0.0,0.0,80,0.00,,,0.00,Rainwise IP-100,2013-10-23 12:48:00,
2013-10-23 05:53:00,39.4,33.0,29.22,WSW,247,1.9,1.9,79,0.00,,,0.00,Rainwise IP-100,2013-10-23 12:53:00,
2013-10-23 05:58:00,39.2,33.0,29.22,WSW,247,2.1,2.1,80,0.00,,,0.00,Rainwise IP-100,2013-10-23 12:58:00,
2013-10-23 06:03:00,39.4,33.0,29.22,WSW,247,0.0,2.0,81,0.00,,,0.00,Rainwise IP-100,2013-10-23 13:03:00,
2013-10-23 06:08:00,39.8,35.0,29.22,WSW,247,0.0,0.0,81,0.00,,,0.00,Rainwise IP-100,2013-10-23 13:08:00,
2013-10-23 06:13:00,40.1,35.0,29.21,WSW,247,0.0,0.0,81,0.00,,,0.00,Rainwise IP-100,2013-10-23 13:13:00,
2013-10-23 06:18:00,40.0,35.0,29.21,WSW,247,1.9,1.9,80,0.00,,,0.00,Rainwise IP-100,2013-10-23 13:18:00,
2013-10-23 06:23:00,39.6,35.0,29.22,WSW,247,2.6,2.6,80,0.00,,,0.00,Rainwise IP-100,2013-10-23 13:23:00,
2013-10-23 06:28:00,39.7,35.0,29.22,WSW,247,0.0,3.0,81,0.00,,,0.00,Rainwise IP-100,2013-10-23 13:28:00,
2013-10-23 06:33:00,39.9,35.0,29.21,WSW,247,0.0,0.0,81,0.00,,,0.00,Rainwise IP-100,2013-10-23 13:33:00,
2013-10-23 06:38:00,39.6,35.0,29.22,WSW,247,0.0,0.0,80,0.00,,,0.00,Rainwise IP-100,2013-10-23 13:38:00,
2013-10-23 06:43:00,39.1,33.0,29.21,WSW,247,0.0,1.0,80,0.00,,,0.00,Rainwise IP-100,2013-10-23 13:43:00,
2013-10-23 06:48:00,38.6,33.0,29.22,WSW,247,1.2,2.0,80,0.00,,,0.00,Rainwise IP-100,2013-10-23 13:48:00,
2013-10-23 06:53:00,38.6,33.0,29.21,WSW,247,0.0,2.0,81,0.00,,,0.00,Rainwise IP-100,2013-10-23 13:53:00,
2013-10-23 06:58:00,38.6,33.0,29.21,WSW,247,0.0,0.0,81,0.00,,,0.00,Rainwise IP-100,2013-10-23 13:58:00,
2013-10-23 07:03:00,38.4,33.0,29.21,WSW,247,0.0,0.0,81,0.00,,,0.00,Rainwise IP-100,2013-10-23 14:03:00,
2013-10-23 07:08:00,38.2,33.0,29.22,WSW,247,1.6,2.0,81,0.00,,,0.00,Rainwise IP-100,2013-10-23 14:08:00,
2013-10-23 07:13:00,38.3,33.0,29.21,WSW,247,1.2,2.0,82,0.00,,,0.00,Rainwise IP-100,2013-10-23 14:13:00,
2013-10-23 07:18:00,38.8,35.0,29.21,WSW,247,0.0,1.0,83,0.00,,,0.00,Rainwise IP-100,2013-10-23 14:18:00,
2013-10-23 07:23:00,39.0,35.0,29.21,WSW,247,0.0,0.0,83,0.00,,,0.00,Rainwise IP-100,2013-10-23 14:23:00,
2013-10-23 07:28:00,38.6,35.0,29.22,WSW,247,0.0,1.0,82,0.00,,,0.00,Rainwise IP-100,2013-10-23 14:28:00,
2013-10-23 07:33:00,38.4,33.0,29.22,WSW,247,0.0,0.0,83,0.00,,,0.00,Rainwise IP-100,2013-10-23 14:33:00,
2013-10-23 07:38:00,38.3,33.0,29.23,WSW,247,0.0,0.0,83,0.00,,,0.00,Rainwise IP-100,2013-10-23 14:38:00,
2013-10-23 07:43:00,38.3,33.0,29.22,WSW,247,0.0,0.0,83,0.00,,,0.00,Rainwise IP-100,2013-10-23 14:43:00,
2013-10-23 07:48:00,38.2,33.0,29.23,WSW,247,0.0,0.0,83,0.00,,,0.00,Rainwise IP-100,2013-10-23 14:48:00,
2013-10-23 07:53:00,38.0,33.0,29.22,WSW,247,0.0,0.0,83,0.00,,,0.00,Rainwise IP-100,2013-10-23 14:53:00,
2013-10-23 07:58:00,38.2,33.0,29.22,WSW,247,1.6,0.0,83,0.00,,,0.00,Rainwise IP-100,2013-10-23 14:58:00,
2013-10-23 08:04:00,38.6,35.0,29.23,WSW,247,0.0,2.0,83,0.00,,,0.00,Rainwise IP-100,2013-10-23 15:04:00,
2013-10-23 08:09:00,39.2,35.0,29.23,WSW,247,0.0,1.0,83,0.00,,,0.00,Rainwise IP-100,2013-10-23 15:09:00,
2013-10-23 08:14:00,40.0,36.0,29.23,WSW,247,0.0,0.0,82,0.00,,,0.00,Rainwise IP-100,2013-10-23 15:14:00,
2013-10-23 08:19:00,40.9,36.0,29.23,WSW,247,1.4,2.0,81,0.00,,,0.00,Rainwise IP-100,2013-10-23 15:19:00,
2013-10-23 08:24:00,41.9,37.0,29.23,WSW,247,1.2,1.2,80,0.00,,,0.00,Rainwise IP-100,2013-10-23 15:24:00,
2013-10-23 08:30:00,43.1,37.0,29.23,WSW,247,0.0,1.0,78,0.00,,,0.00,Rainwise IP-100,2013-10-23 15:30:00,
2013-10-23 08:35:00,44.8,38.0,29.23,WSW,247,0.0,0.0,75,0.00,,,0.00,Rainwise IP-100,2013-10-23 15:35:00,
2013-10-23 08:40:00,46.1,37.0,29.24,WSW,247,0.0,0.0,72,0.00,,,0.00,Rainwise IP-100,2013-10-23 15:40:00,
2013-10-23 08:45:00,47.3,37.0,29.24,WSW,247,0.0,0.0,70,0.00,,,0.00,Rainwise IP-100,2013-10-23 15:45:00,
2013-10-23 08:50:00,48.4,37.0,29.25,WSW,247,0.0,0.0,66,0.00,,,0.00,Rainwise IP-100,2013-10-23 15:50:00,
2013-10-23 08:55:00,49.2,37.0,29.25,SSW,202,0.0,0.0,63,0.00,,,0.00,Rainwise IP-100,2013-10-23 15:55:00,
2013-10-23 09:00:00,50.0,37.0,29.25,SSW,202,0.0,0.0,61,0.00,,,0.00,Rainwise IP-100,2013-10-23 16:00:00,
2013-10-23 09:05:00,51.3,38.0,29.25,SSW,202,0.0,0.0,60,0.00,,,0.00,Rainwise IP-100,2013-10-23 16:05:00,
2013-10-23 09:10:00,52.9,38.0,29.25,SSW,202,0.0,0.0,58,0.00,,,0.00,Rainwise IP-100,2013-10-23 16:10:00,
2013-10-23 09:15:00,54.3,38.0,29.25,SSW,202,0.0,0.0,55,0.00,,,0.00,Rainwise IP-100,2013-10-23 16:15:00,
2013-10-23 09:20:00,55.4,38.0,29.25,SE,135,0.0,0.0,53,0.00,,,0.00,Rainwise IP-100,2013-10-23 16:20:00,
2013-10-23 09:25:00,55.5,38.0,29.24,ESE,112,1.9,2.0,51,0.00,,,0.00,Rainwise IP-100,2013-10-23 16:25:00,
2013-10-23 09:30:00,55.4,37.0,29.24,ESE,112,1.4,2.0,50,0.00,,,0.00,Rainwise IP-100,2013-10-23 16:30:00,
2013-10-23 09:35:00,56.1,37.0,29.24,ESE,112,1.9,2.0,49,0.00,,,0.00,Rainwise IP-100,2013-10-23 16:35:00,
2013-10-23 09:40:00,56.7,37.0,29.24,SSE,157,1.2,3.0,48,0.00,,,0.00,Rainwise IP-100,2013-10-23 16:40:00,
2013-10-23 09:45:00,57.6,38.0,29.24,SSE,157,0.0,3.0,47,0.00,,,0.00,Rainwise IP-100,2013-10-23 16:45:00,
2013-10-23 09:50:00,58.8,39.0,29.24,SSE,157,4.9,4.9,47,0.00,,,0.00,Rainwise IP-100,2013-10-23 16:50:00,
2013-10-23 09:55:00,59.4,38.0,29.24,SSE,157,1.2,5.0,46,0.00,,,0.00,Rainwise IP-100,2013-10-23 16:55:00,
2013-10-23 10:00:00,60.3,38.0,29.23,SSE,157,0.0,4.0,44,0.00,,,0.00,Rainwise IP-100,2013-10-23 17:00:00,
2013-10-23 10:05:00,61.5,39.0,29.24,SSE,157,2.6,3.0,43,0.00,,,0.00,Rainwise IP-100,2013-10-23 17:05:00,
2013-10-23 10:10:00,61.3,37.0,29.24,South,180,0.0,5.0,41,0.00,,,0.00,Rainwise IP-100,2013-10-23 17:10:00,
2013-10-23 10:15:00,61.7,37.0,29.23,SSE,157,1.4,6.0,40,0.00,,,0.00,Rainwise IP-100,2013-10-23 17:15:00,
2013-10-23 10:20:00,63.1,38.0,29.23,SSE,157,0.0,4.0,39,0.00,,,0.00,Rainwise IP-100,2013-10-23 17:20:00,
2013-10-23 10:25:00,63.8,37.0,29.23,ESE,112,1.9,2.0,38,0.00,,,0.00,Rainwise IP-100,2013-10-23 17:25:00,
2013-10-23 10:30:00,63.9,37.0,29.23,ESE,112,2.3,3.0,37,0.00,,,0.00,Rainwise IP-100,2013-10-23 17:30:00,
2013-10-23 10:35:00,63.8,36.0,29.23,ESE,112,1.4,4.0,36,0.00,,,0.00,Rainwise IP-100,2013-10-23 17:35:00,
2013-10-23 10:40:00,64.7,37.0,29.23,SSE,157,2.1,4.0,36,0.00,,,0.00,Rainwise IP-100,2013-10-23 17:40:00,
2013-10-23 10:45:00,65.7,37.0,29.23,ESE,112,2.6,5.0,35,0.00,,,0.00,Rainwise IP-100,2013-10-23 17:45:00,
2013-10-23 10:50:00,66.6,37.0,29.23,ESE,112,2.3,3.0,34,0.00,,,0.00,Rainwise IP-100,2013-10-23 17:50:00,
2013-10-23 10:55:00,67.5,37.0,29.22,East,90,1.6,5.0,33,0.00,,,0.00,Rainwise IP-100,2013-10-23 17:55:00,
2013-10-23 11:00:00,68.3,37.0,29.22,South,180,1.6,3.0,32,0.00,,,0.00,Rainwise IP-100,2013-10-23 18:00:00,
2013-10-23 11:05:00,69.2,37.0,29.22,SSE,157,2.8,3.0,31,0.00,,,0.00,Rainwise IP-100,2013-10-23 18:05:00,
2013-10-23 11:10:00,69.2,37.0,29.22,ENE,67,1.2,4.0,31,0.00,,,0.00,Rainwise IP-100,2013-10-23 18:10:00,
2013-10-23 11:15:00,69.3,37.0,29.22,NE,45,0.0,4.0,30,0.00,,,0.00,Rainwise IP-100,2013-10-23 18:15:00,
2013-10-23 11:20:00,69.9,37.0,29.22,ENE,67,0.0,3.0,30,0.00,,,0.00,Rainwise IP-100,2013-10-23 18:20:00,
2013-10-23 11:25:00,71.1,37.0,29.22,ESE,112,0.0,2.0,29,0.00,,,0.00,Rainwise IP-100,2013-10-23 18:25:00,
2013-10-23 11:30:00,71.9,37.0,29.21,SSW,202,0.0,4.0,28,0.00,,,0.00,Rainwise IP-100,2013-10-23 18:30:00,
2013-10-23 11:35:00,72.2,37.0,29.21,SSE,157,2.1,5.0,27,0.00,,,0.00,Rainwise IP-100,2013-10-23 18:35:00,
2013-10-23 11:40:00,72.8,37.0,29.21,SSE,157,2.3,3.0,27,0.00,,,0.00,Rainwise IP-100,2013-10-23 18:40:00,
2013-10-23 11:45:00,73.5,37.0,29.21,ESE,112,1.2,3.0,26,0.00,,,0.00,Rainwise IP-100,2013-10-23 18:45:00,
2013-10-23 11:50:00,74.3,37.0,29.21,ESE,112,0.0,4.0,25,0.00,,,0.00,Rainwise IP-100,2013-10-23 18:50:00,
2013-10-23 11:55:00,74.7,37.0,29.21,SSE,157,4.0,4.0,25,0.00,,,0.00,Rainwise IP-100,2013-10-23 18:55:00,
2013-10-23 12:00:00,75.4,37.0,29.21,South,180,0.0,4.0,25,0.00,,,0.00,Rainwise IP-100,2013-10-23 19:00:00,
2013-10-23 12:05:00,76.6,38.0,29.20,ESE,112,3.0,5.0,25,0.00,,,0.00,Rainwise IP-100,2013-10-23 19:05:00,
2013-10-23 12:10:00,77.3,38.0,29.20,East,90,1.2,3.0,24,0.00,,,0.00,Rainwise IP-100,2013-10-23 19:10:00,
2013-10-23 12:15:00,77.6,38.0,29.20,SSW,202,0.0,3.0,24,0.00,,,0.00,Rainwise IP-100,2013-10-23 19:15:00,
2013-10-23 12:20:00,78.3,39.0,29.20,SSE,157,0.0,3.0,24,0.00,,,0.00,Rainwise IP-100,2013-10-23 19:20:00,
2013-10-23 12:25:00,79.5,38.0,29.20,SW,225,1.6,5.0,23,0.00,,,0.00,Rainwise IP-100,2013-10-23 19:25:00,
2013-10-23 12:30:00,79.8,37.0,29.19,ENE,67,2.3,5.0,22,0.00,,,0.00,Rainwise IP-100,2013-10-23 19:30:00,
2013-10-23 12:35:00,80.4,38.0,29.20,South,180,1.4,4.0,22,0.00,,,0.00,Rainwise IP-100,2013-10-23 19:35:00,
2013-10-23 12:40:00,81.4,38.0,29.19,WSW,247,1.9,4.0,21,0.00,,,0.00,Rainwise IP-100,2013-10-23 19:40:00,
2013-10-23 12:45:00,81.9,38.0,29.19,South,180,2.6,4.0,21,0.00,,,0.00,Rainwise IP-100,2013-10-23 19:45:00,
2013-10-23 12:50:00,82.2,38.0,29.18,SSE,157,2.3,4.0,21,0.00,,,0.00,Rainwise IP-100,2013-10-23 19:50:00,
2013-10-23 12:55:00,82.4,37.0,29.18,SSW,202,1.2,4.0,20,0.00,,,0.00,Rainwise IP-100,2013-10-23 19:55:00,
2013-10-23 13:00:00,82.7,38.0,29.18,SSW,202,1.6,5.0,20,0.00,,,0.00,Rainwise IP-100,2013-10-23 20:00:00,
2013-10-23 13:05:00,83.1,37.0,29.18,SSE,157,1.2,4.0,19,0.00,,,0.00,Rainwise IP-100,2013-10-23 20:05:00,
2013-10-23 13:10:00,83.7,37.0,29.18,SSW,202,0.0,1.0,19,0.00,,,0.00,Rainwise IP-100,2013-10-23 20:10:00,
2013-10-23 13:15:00,83.8,37.0,29.18,ESE,112,2.6,6.0,19,0.00,,,0.00,Rainwise IP-100,2013-10-23 20:15:00,
2013-10-23 13:20:00,82.6,36.0,29.18,ESE,112,0.0,5.0,19,0.00,,,0.00,Rainwise IP-100,2013-10-23 20:20:00,
2013-10-23 13:25:00,82.7,36.0,29.17,ESE,112,1.6,3.0,19,0.00,,,0.00,Rainwise IP-100,2013-10-23 20:25:00,
2013-10-23 13:30:00,83.1,37.0,29.17,ESE,112,1.6,6.0,19,0.00,,,0.00,Rainwise IP-100,2013-10-23 20:30:00,
2013-10-23 13:35:00,83.1,37.0,29.17,North,360,2.8,5.0,19,0.00,,,0.00,Rainwise IP-100,2013-10-23 20:35:00,
2013-10-23 13:40:00,83.6,37.0,29.16,ESE,112,0.0,3.0,19,0.00,,,0.00,Rainwise IP-100,2013-10-23 20:40:00,
2013-10-23 13:45:00,84.1,37.0,29.16,NE,45,0.0,6.0,19,0.00,,,0.00,Rainwise IP-100,2013-10-23 20:45:00,
2013-10-23 13:50:00,84.2,38.0,29.16,SSW,202,6.3,6.3,19,0.00,,,0.00,Rainwise IP-100,2013-10-23 20:50:00,
2013-10-23 13:55:00,84.7,37.0,29.16,SSE,157,3.5,7.0,18,0.00,,,0.00,Rainwise IP-100,2013-10-23 20:55:00,
2013-10-23 14:00:00,85.2,36.0,29.15,ENE,67,0.0,4.0,17,0.00,,,0.00,Rainwise IP-100,2013-10-23 21:00:00,
2013-10-23 14:05:00,85.6,36.0,29.15,SSE,157,1.2,6.0,17,0.00,,,0.00,Rainwise IP-100,2013-10-23 21:05:00,
2013-10-23 14:10:00,85.9,38.0,29.15,SSE,157,7.2,7.2,18,0.00,,,0.00,Rainwise IP-100,2013-10-23 21:10:00,
2013-10-23 14:15:00,85.5,37.0,29.15,SSE,157,3.5,8.0,18,0.00,,,0.00,Rainwise IP-100,2013-10-23 21:15:00,
2013-10-23 14:20:00,85.7,37.0,29.15,WSW,247,1.9,6.0,18,0.00,,,0.00,Rainwise IP-100,2013-10-23 21:20:00,
2013-10-23 14:25:00,86.4,38.0,29.15,WSW,247,2.3,8.0,18,0.00,,,0.00,Rainwise IP-100,2013-10-23 21:25:00,
2013-10-23 14:30:00,86.7,38.0,29.15,SE,135,6.3,9.0,18,0.00,,,0.00,Rainwise IP-100,2013-10-23 21:30:00,
2013-10-23 14:35:00,86.3,38.0,29.14,SSE,157,5.4,9.0,18,0.00,,,0.00,Rainwise IP-100,2013-10-23 21:35:00,
2013-10-23 14:40:00,85.8,37.0,29.14,SSE,157,7.2,10.0,18,0.00,,,0.00,Rainwise IP-100,2013-10-23 21:40:00,
2013-10-23 14:45:00,86.0,36.0,29.14,SSW,202,1.2,8.0,17,0.00,,,0.00,Rainwise IP-100,2013-10-23 21:45:00,
2013-10-23 14:50:00,86.4,35.0,29.14,SSE,157,6.5,11.0,16,0.00,,,0.00,Rainwise IP-100,2013-10-23 21:50:00,
2013-10-23 14:55:00,86.1,36.0,29.14,SSE,157,5.4,11.0,17,0.00,,,0.00,Rainwise IP-100,2013-10-23 21:55:00,
2013-10-23 15:00:00,85.6,36.0,29.14,SSW,202,3.5,11.0,17,0.00,,,0.00,Rainwise IP-100,2013-10-23 22:00:00,
2013-10-23 15:05:00,85.3,36.0,29.14,SSE,157,2.1,12.0,17,0.00,,,0.00,Rainwise IP-100,2013-10-23 22:05:00,
2013-10-23 15:10:00,85.7,36.0,29.14,SSE,157,6.1,9.0,17,0.00,,,0.00,Rainwise IP-100,2013-10-23 22:10:00,
2013-10-23 15:15:00,86.0,36.0,29.13,SSW,202,4.0,11.0,17,0.00,,,0.00,Rainwise IP-100,2013-10-23 22:15:00,
2013-10-23 15:20:00,86.4,37.0,29.14,SSW,202,4.0,6.0,17,0.00,,,0.00,Rainwise IP-100,2013-10-23 22:20:00,
2013-10-23 15:25:00,87.0,36.0,29.13,ESE,112,3.3,5.0,16,0.00,,,0.00,Rainwise IP-100,2013-10-23 22:25:00,
2013-10-23 15:30:00,87.6,36.0,29.13,SW,225,1.6,4.0,16,0.00,,,0.00,Rainwise IP-100,2013-10-23 22:30:00,
2013-10-23 15:35:00,88.2,35.0,29.13,SW,225,2.6,6.0,15,0.00,,,0.00,Rainwise IP-100,2013-10-23 22:35:00,
2013-10-23 15:40:00,88.1,31.0,29.13,WSW,247,5.6,9.0,13,0.00,,,0.00,Rainwise IP-100,2013-10-23 22:40:00,
2013-10-23 15:45:00,87.6,31.0,29.13,WSW,247,3.3,11.0,13,0.00,,,0.00,Rainwise IP-100,2013-10-23 22:45:00,
2013-10-23 15:50:00,87.2,31.0,29.13,WNW,292,5.1,9.0,13,0.00,,,0.00,Rainwise IP-100,2013-10-23 22:50:00,
2013-10-23 15:55:00,86.9,31.0,29.14,SW,225,9.8,9.8,13,0.00,,,0.00,Rainwise IP-100,2013-10-23 22:55:00,
2013-10-23 16:00:00,86.7,31.0,29.13,WSW,247,4.2,10.0,13,0.00,,,0.00,Rainwise IP-100,2013-10-23 23:00:00,
2013-10-23 16:05:00,86.6,32.0,29.13,SW,225,1.4,6.0,14,0.00,,,0.00,Rainwise IP-100,2013-10-23 23:05:00,
2013-10-23 16:10:00,86.5,32.0,29.13,SW,225,5.4,9.0,14,0.00,,,0.00,Rainwise IP-100,2013-10-23 23:10:00,
2013-10-23 16:15:00,86.2,29.0,29.13,SSW,202,8.4,9.0,13,0.00,,,0.00,Rainwise IP-100,2013-10-23 23:15:00,
2013-10-23 16:20:00,86.0,29.0,29.14,SSW,202,7.5,8.0,13,0.00,,,0.00,Rainwise IP-100,2013-10-23 23:20:00,
2013-10-23 16:25:00,85.9,32.0,29.13,WNW,292,2.3,10.0,14,0.00,,,0.00,Rainwise IP-100,2013-10-23 23:25:00,
2013-10-23 16:30:00,85.8,31.0,29.13,SSW,202,4.9,9.0,14,0.00,,,0.00,Rainwise IP-100,2013-10-23 23:30:00,
2013-10-23 16:35:00,85.4,31.0,29.14,WSW,247,4.4,7.0,14,0.00,,,0.00,Rainwise IP-100,2013-10-23 23:35:00,
2013-10-23 16:40:00,85.0,31.0,29.13,SSW,202,4.7,7.0,14,0.00,,,0.00,Rainwise IP-100,2013-10-23 23:40:00,
2013-10-23 16:45:00,84.7,31.0,29.14,SSW,202,4.2,7.0,14,0.00,,,0.00,Rainwise IP-100,2013-10-23 23:45:00,
2013-10-23 16:50:00,84.7,31.0,29.14,WSW,247,0.0,6.0,14,0.00,,,0.00,Rainwise IP-100,2013-10-23 23:50:00,
2013-10-23 16:55:00,84.8,32.0,29.14,SSW,202,0.0,4.0,15,0.00,,,0.00,Rainwise IP-100,2013-10-23 23:55:00,
2013-10-23 17:00:00,85.0,32.0,29.13,SW,225,3.0,4.0,15,0.00,,,0.00,Rainwise IP-100,2013-10-24 00:00:00,
2013-10-23 17:05:00,84.9,32.0,29.14,SSE,157,3.3,4.0,15,0.00,,,0.00,Rainwise IP-100,2013-10-24 00:05:00,
2013-10-23 17:10:00,84.6,31.0,29.13,NNW,337,2.3,3.0,14,0.00,,,0.00,Rainwise IP-100,2013-10-24 00:10:00,
2013-10-23 17:15:00,84.7,32.0,29.13,NNW,337,0.0,3.0,15,0.00,,,0.00,Rainwise IP-100,2013-10-24 00:15:00,
2013-10-23 17:20:00,84.5,32.0,29.13,NNE,22,0.0,1.0,15,0.00,,,0.00,Rainwise IP-100,2013-10-24 00:20:00,
2013-10-23 17:25:00,84.3,33.0,29.13,NNE,22,0.0,1.0,16,0.00,,,0.00,Rainwise IP-100,2013-10-24 00:25:00,
2013-10-23 17:30:00,84.2,33.0,29.13,WSW,247,0.0,4.0,16,0.00,,,0.00,Rainwise IP-100,2013-10-24 00:30:00,
2013-10-23 17:35:00,83.0,33.0,29.13,SSE,157,1.4,2.0,17,0.00,,,0.00,Rainwise IP-100,2013-10-24 00:35:00,
2013-10-23 17:40:00,81.4,33.0,29.14,SSE,157,0.0,1.0,18,0.00,,,0.00,Rainwise IP-100,2013-10-24 00:40:00,
2013-10-23 17:45:00,80.3,35.0,29.13,SSW,202,0.0,1.0,19,0.00,,,0.00,Rainwise IP-100,2013-10-24 00:45:00,
2013-10-23 17:50:00,78.8,35.0,29.13,SSW,202,0.0,1.0,20,0.00,,,0.00,Rainwise IP-100,2013-10-24 00:50:00,
2013-10-23 17:55:00,76.4,33.0,29.14,SSW,202,1.9,2.0,21,0.00,,,0.00,Rainwise IP-100,2013-10-24 00:55:00,
2013-10-23 18:00:00,74.2,35.0,29.14,SSW,202,0.0,2.0,23,0.00,,,0.00,Rainwise IP-100,2013-10-24 01:00:00,
2013-10-23 18:05:00,72.9,35.0,29.14,SW,225,0.0,1.0,24,0.00,,,0.00,Rainwise IP-100,2013-10-24 01:05:00,
2013-10-23 18:10:00,71.5,35.0,29.14,WSW,247,3.3,3.3,26,0.00,,,0.00,Rainwise IP-100,2013-10-24 01:10:00,
2013-10-23 18:15:00,70.2,35.0,29.14,WSW,247,0.0,3.0,27,0.00,,,0.00,Rainwise IP-100,2013-10-24 01:15:00,
2013-10-23 18:20:00,69.7,35.0,29.15,WSW,247,1.2,1.2,27,0.00,,,0.00,Rainwise IP-100,2013-10-24 01:20:00,
2013-10-23 18:25:00,69.3,35.0,29.15,WSW,247,0.0,1.0,28,0.00,,,0.00,Rainwise IP-100,2013-10-24 01:25:00,
2013-10-23 18:30:00,68.7,35.0,29.15,WSW,247,0.0,1.0,28,0.00,,,0.00,Rainwise IP-100,2013-10-24 01:30:00,
2013-10-23 18:35:00,68.2,35.0,29.15,WSW,247,1.6,2.0,29,0.00,,,0.00,Rainwise IP-100,2013-10-24 01:35:00,
2013-10-23 18:40:00,67.5,35.0,29.15,WSW,247,2.1,2.1,30,0.00,,,0.00,Rainwise IP-100,2013-10-24 01:40:00,
2013-10-23 18:45:00,67.0,36.0,29.15,WSW,247,0.0,4.0,31,0.00,,,0.00,Rainwise IP-100,2013-10-24 01:45:00,
2013-10-23 18:50:00,66.5,36.0,29.15,WSW,247,0.0,2.0,32,0.00,,,0.00,Rainwise IP-100,2013-10-24 01:50:00,
2013-10-23 18:55:00,65.8,36.0,29.15,WSW,247,1.2,2.0,33,0.00,,,0.00,Rainwise IP-100,2013-10-24 01:55:00,
2013-10-23 19:00:00,65.0,36.0,29.15,WSW,247,0.0,1.0,34,0.00,,,0.00,Rainwise IP-100,2013-10-24 02:00:00,
2013-10-23 19:05:00,64.3,37.0,29.15,WSW,247,0.0,3.0,36,0.00,,,0.00,Rainwise IP-100,2013-10-24 02:05:00,
2013-10-23 19:10:00,63.7,36.0,29.15,WSW,247,1.2,3.0,36,0.00,,,0.00,Rainwise IP-100,2013-10-24 02:10:00,
2013-10-23 19:15:00,62.9,36.0,29.16,WSW,247,0.0,3.0,36,0.00,,,0.00,Rainwise IP-100,2013-10-24 02:15:00,
2013-10-23 19:20:00,62.2,36.0,29.16,WSW,247,0.0,1.0,38,0.00,,,0.00,Rainwise IP-100,2013-10-24 02:20:00,
2013-10-23 19:25:00,61.6,36.0,29.16,WSW,247,3.5,3.5,38,0.00,,,0.00,Rainwise IP-100,2013-10-24 02:25:00,
2013-10-23 19:30:00,60.8,36.0,29.16,WSW,247,0.0,4.0,39,0.00,,,0.00,Rainwise IP-100,2013-10-24 02:30:00,
2013-10-23 19:35:00,60.0,36.0,29.16,WSW,247,0.0,3.0,40,0.00,,,0.00,Rainwise IP-100,2013-10-24 02:35:00,
2013-10-23 19:40:00,59.4,35.0,29.16,WSW,247,0.0,0.0,40,0.00,,,0.00,Rainwise IP-100,2013-10-24 02:40:00,
2013-10-23 19:45:00,58.9,36.0,29.17,WSW,247,0.0,1.0,41,0.00,,,0.00,Rainwise IP-100,2013-10-24 02:45:00,
2013-10-23 19:50:00,58.5,36.0,29.17,WSW,247,1.6,4.0,42,0.00,,,0.00,Rainwise IP-100,2013-10-24 02:50:00,
2013-10-23 19:55:00,58.1,37.0,29.17,WSW,247,2.1,2.1,44,0.00,,,0.00,Rainwise IP-100,2013-10-24 02:55:00,
2013-10-23 20:00:00,57.9,38.0,29.17,WSW,247,0.0,2.0,46,0.00,,,0.00,Rainwise IP-100,2013-10-24 03:00:00,
2013-10-23 20:05:00,57.9,38.0,29.17,WSW,247,0.0,0.0,47,0.00,,,0.00,Rainwise IP-100,2013-10-24 03:05:00,
2013-10-23 20:10:00,57.3,37.0,29.17,WSW,247,1.6,3.0,46,0.00,,,0.00,Rainwise IP-100,2013-10-24 03:10:00,
2013-10-23 20:15:00,56.5,37.0,29.17,WSW,247,2.1,5.0,47,0.00,,,0.00,Rainwise IP-100,2013-10-24 03:15:00,
2013-10-23 20:20:00,56.3,37.0,29.18,WSW,247,0.0,2.0,49,0.00,,,0.00,Rainwise IP-100,2013-10-24 03:20:00,
2013-10-23 20:25:00,56.3,38.0,29.17,WSW,247,0.0,2.0,51,0.00,,,0.00,Rainwise IP-100,2013-10-24 03:25:00,
2013-10-23 20:30:00,56.0,38.0,29.17,WSW,247,1.4,1.4,50,0.00,,,0.00,Rainwise IP-100,2013-10-24 03:30:00,
2013-10-23 20:35:00,55.6,38.0,29.18,WSW,247,2.1,2.1,50,0.00,,,0.00,Rainwise IP-100,2013-10-24 03:35:00,
2013-10-23 20:40:00,55.1,37.0,29.17,WSW,247,2.1,2.1,51,0.00,,,0.00,Rainwise IP-100,2013-10-24 03:40:00,
2013-10-23 20:45:00,54.6,37.0,29.18,WSW,247,1.2,2.0,52,0.00,,,0.00,Rainwise IP-100,2013-10-24 03:45:00,
2013-10-23 20:50:00,54.5,38.0,29.18,WSW,247,0.0,3.0,53,0.00,,,0.00,Rainwise IP-100,2013-10-24 03:50:00,
2013-10-23 20:55:00,54.4,38.0,29.18,WSW,247,1.4,2.0,53,0.00,,,0.00,Rainwise IP-100,2013-10-24 03:55:00,
2013-10-23 21:00:00,54.1,37.0,29.18,WSW,247,2.1,3.0,53,0.00,,,0.00,Rainwise IP-100,2013-10-24 04:00:00,
2013-10-23 21:01:00,54.1,37.0,29.18,WSW,247,1.2,3.0,53,0.00,,,0.00,Rainwise IP-100,2013-10-24 04:01:00,
2013-10-23 21:02:00,54.1,38.0,29.18,WSW,247,0.0,3.0,54,0.00,,,0.00,Rainwise IP-100,2013-10-24 04:02:00,
2013-10-23 21:07:00,54.0,38.0,29.18,WSW,247,0.0,1.0,54,0.00,,,0.00,Rainwise IP-100,2013-10-24 04:07:00,
2013-10-23 21:12:00,53.7,37.0,29.18,WSW,247,0.0,0.0,54,0.00,,,0.00,Rainwise IP-100,2013-10-24 04:12:00,
2013-10-23 21:17:00,53.2,37.0,29.18,WSW,247,1.6,1.6,54,0.00,,,0.00,Rainwise IP-100,2013-10-24 04:17:00,
2013-10-23 21:22:00,52.9,37.0,29.18,WSW,247,1.6,2.0,55,0.00,,,0.00,Rainwise IP-100,2013-10-24 04:22:00,
2013-10-23 21:27:00,52.9,37.0,29.18,WSW,247,2.1,2.1,56,0.00,,,0.00,Rainwise IP-100,2013-10-24 04:27:00,
2013-10-23 21:32:00,53.0,38.0,29.18,WSW,247,0.0,2.0,57,0.00,,,0.00,Rainwise IP-100,2013-10-24 04:32:00,
2013-10-23 21:37:00,52.8,38.0,29.19,WSW,247,0.0,1.0,57,0.00,,,0.00,Rainwise IP-100,2013-10-24 04:37:00,
2013-10-23 21:42:00,52.4,36.0,29.19,WSW,247,0.0,1.0,55,0.00,,,0.00,Rainwise IP-100,2013-10-24 04:42:00,
2013-10-23 21:47:00,51.9,36.0,29.19,WSW,247,0.0,2.0,55,0.00,,,0.00,Rainwise IP-100,2013-10-24 04:47:00,
2013-10-23 21:52:00,51.8,37.0,29.19,WSW,247,1.9,3.0,56,0.00,,,0.00,Rainwise IP-100,2013-10-24 04:52:00,
2013-10-23 21:57:00,51.7,37.0,29.19,WSW,247,1.6,2.0,57,0.00,,,0.00,Rainwise IP-100,2013-10-24 04:57:00,
2013-10-23 22:02:00,51.7,37.0,29.19,WSW,247,0.0,1.0,56,0.00,,,0.00,Rainwise IP-100,2013-10-24 05:02:00,
2013-10-23 22:07:00,51.7,37.0,29.19,WSW,247,0.0,0.0,56,0.00,,,0.00,Rainwise IP-100,2013-10-24 05:07:00,
2013-10-23 22:12:00,51.4,37.0,29.19,WSW,247,0.0,1.0,57,0.00,,,0.00,Rainwise IP-100,2013-10-24 05:12:00,
2013-10-23 22:17:00,51.0,37.0,29.19,WSW,247,1.4,2.0,59,0.00,,,0.00,Rainwise IP-100,2013-10-24 05:17:00,
2013-10-23 22:22:00,50.7,37.0,29.19,WSW,247,1.9,1.9,60,0.00,,,0.00,Rainwise IP-100,2013-10-24 05:22:00,
2013-10-23 22:27:00,50.6,37.0,29.19,WSW,247,1.2,2.0,60,0.00,,,0.00,Rainwise IP-100,2013-10-24 05:27:00,
2013-10-23 22:32:00,50.6,37.0,29.19,WSW,247,0.0,2.0,60,0.00,,,0.00,Rainwise IP-100,2013-10-24 05:32:00,
2013-10-23 22:37:00,50.6,37.0,29.20,WSW,247,0.0,1.0,59,0.00,,,0.00,Rainwise IP-100,2013-10-24 05:37:00,
2013-10-23 22:42:00,50.5,37.0,29.20,WSW,247,0.0,1.0,60,0.00,,,0.00,Rainwise IP-100,2013-10-24 05:42:00,
2013-10-23 22:47:00,50.4,37.0,29.20,WSW,247,0.0,1.0,60,0.00,,,0.00,Rainwise IP-100,2013-10-24 05:47:00,
2013-10-23 22:52:00,50.2,37.0,29.20,WSW,247,0.0,0.0,61,0.00,,,0.00,Rainwise IP-100,2013-10-24 05:52:00,
2013-10-23 22:57:00,49.9,37.0,29.20,WSW,247,0.0,0.0,61,0.00,,,0.00,Rainwise IP-100,2013-10-24 05:57:00,
2013-10-23 23:02:00,49.5,37.0,29.20,WSW,247,0.0,0.0,61,0.00,,,0.00,Rainwise IP-100,2013-10-24 06:02:00,
2013-10-23 23:07:00,49.0,37.0,29.20,WSW,247,1.9,1.9,63,0.00,,,0.00,Rainwise IP-100,2013-10-24 06:07:00,
2013-10-23 23:12:00,48.6,38.0,29.20,WSW,247,1.2,2.0,65,0.00,,,0.00,Rainwise IP-100,2013-10-24 06:12:00,
2013-10-23 23:17:00,48.5,38.0,29.20,WSW,247,1.4,2.0,66,0.00,,,0.00,Rainwise IP-100,2013-10-24 06:17:00,
2013-10-23 23:22:00,48.5,38.0,29.20,WSW,247,1.9,2.0,65,0.00,,,0.00,Rainwise IP-100,2013-10-24 06:22:00,
2013-10-23 23:27:00,48.5,38.0,29.20,WSW,247,0.0,2.0,65,0.00,,,0.00,Rainwise IP-100,2013-10-24 06:27:00,
2013-10-23 23:32:00,48.5,38.0,29.20,WSW,247,0.0,0.0,65,0.00,,,0.00,Rainwise IP-100,2013-10-24 06:32:00,
2013-10-23 23:37:00,48.6,37.0,29.21,WSW,247,0.0,0.0,64,0.00,,,0.00,Rainwise IP-100,2013-10-24 06:37:00,
2013-10-23 23:42:00,48.5,37.0,29.21,WSW,247,0.0,0.0,64,0.00,,,0.00,Rainwise IP-100,2013-10-24 06:42:00,
2013-10-23 23:47:00,47.9,37.0,29.20,WSW,247,0.0,1.0,65,0.00,,,0.00,Rainwise IP-100,2013-10-24 06:47:00,
2013-10-23 23:52:00,47.4,37.0,29.21,WSW,247,1.2,1.2,67,0.00,,,0.00,Rainwise IP-100,2013-10-24 06:52:00,
2013-10-23 23:57:00,47.3,37.0,29.21,WSW,247,0.0,1.0,68,0.00,,,0.00,Rainwise IP-100,2013-10-24 06:57:00,